Regional Weather Roundup
Issued by NWS

Home | Current Version | Previous Version | Text Only | Print | Product List | Glossary Off
Versions: 1 2 3 4 5 6 7 8 9 10 11 12 13 14 15 16 17 18 19 20 21 22 23 24 25 26 27 28 29 30 31 32 33 34 35 36 37 38 39 40 41 42 43 44 45 46 47 48 49 50

000
ASUS43 KDMX 270807
RWRIA

WEATHER ROUNDUP FOR IOWA
NATIONAL WEATHER SERVICE DES MOINES IA
200 AM CST TUE JAN 27 2015

NOTE: "FAIR" INDICATES FEW OR NO CLOUDS BELOW 12,000 FEET WITH NO
SIGNIFICANT WEATHER AND/OR OBSTRUCTIONS TO VISIBILITY.

* - THESE STATIONS ARE NOT NWS STATIONS...THUS NOT UNDER NWS
QUALITY CONTROL.  THEY ALSO DO NOT REPORT WEATHER SUCH
AS PRECIPITATION OR FOG.

IAZ001>003-012>014-020>022-031>034-043>046-270900-
   NORTHWEST IOWA

CITY           SKY/WX    TMP DP  RH WIND       PRES   REMARKS
CARROLL *      CLEAR     34  32  93 NW12      30.06R WCI  25
CHEROKEE *       N/A     30  30 100 CALM      30.07R
DENISON *      CLEAR     34  34 100 N3        30.04S
LE MARS *      CLEAR     32  32 100 CALM      30.07S
ORANGE CITY *  CLEAR     34  30  86 NW3       30.06R
SHELDON *      CLEAR     30  30 100 NW6       30.04S WCI  24
SIOUX CITY     CLEAR     31  29  92 N3        30.07R
SPENCER        MOCLDY    30  27  88 NW7       30.05R WCI  23
STORM LAKE *   CLEAR     32  32 100 NW8       30.06R WCI  25
$$

IAZ055>058-069>071-079>083-090>094-270900-
   SOUTHWEST IOWA

CITY           SKY/WX    TMP DP  RH WIND       PRES   REMARKS
ATLANTIC *     CLEAR     28  28 100 CALM      30.06R
AUDUBON *      CLEAR     30  27  86 N5        30.06R WCI  25
CLARINDA *     CLEAR     28  27  93 CALM      30.09R
COUNCIL BLFS * CLEAR     37  36  93 NW6       30.05S WCI  33
CRESTON *      CLEAR     34  32  93 N8        30.04R WCI  27
HARLAN  *      CLEAR     28  28 100 CALM      30.09S
LAMONI         CLEAR     34  31  88 N7        30.02R WCI  28
RED OAK *      CLEAR     28  27  93 NE5       30.07R WCI  23
SHENANDOAH *   CLEAR     36  32  87 NE3       30.08R
$$

IAZ047>049-059>061-072>074-084-270900-
   CENTRAL IOWA

CITY           SKY/WX    TMP DP  RH WIND       PRES   REMARKS
AMES           PTCLDY    35  29  78 NW8       30.03R WCI  29
ANKENY *       CLOUDY    37  32  81 N15       30.03R WCI  28
CHARITON *     CLOUDY    34  32  93 NW8       30.02S WCI  27
DES MOINES     CLOUDY    37  31  78 NW8       30.04R WCI  31
GRINNELL*      CLEAR     32  30  93 NW7       30.01R WCI  26
KNOXVILLE *    PTCLDY    37  30  75 NW13      30.00S WCI  29
MARSHALLTOWN   CLEAR     32  29  88 NW8       30.00R WCI  25
PELLA *        CLEAR     36  30  80 NW8       30.03R WCI  29
PERRY *          N/A     32  32 100 NW7       30.05R WCI  26
$$

IAZ004>006-015-016-023>025-035-036-270900-
   NORTH CENTRAL IOWA

CITY           SKY/WX    TMP DP  RH WIND       PRES   REMARKS
ALGONA *       CLEAR     32  32 100 N7        30.03R WCI  26
CLARION *      CLEAR     32  32 100 N6        30.02R WCI  26
ESTHERVILLE    CLEAR     31  29  92 NW8       30.03R WCI  23
FORT DODGE *   CLEAR     34  28  80 W3        30.05R
MASON CITY     CLEAR     31  28  89 NW8       30.02R WCI  23
FOREST CITY *  CLEAR     32  28  86 NW7       30.01S WCI  26
IOWA FALLS *     N/A     34  30  86 NW9       30.01S WCI  26
$$

IAZ007>011-017>019-026>030-037>042-050>054-066-270900-
   NORTHEAST IOWA

CITY           SKY/WX    TMP DP  RH WIND       PRES   REMARKS
CEDAR RAPIDS   CLEAR     31  29  92 NW8       29.97R WCI  23
CHARLES CITY * CLOUDY    34  34 100 N9        30.00R WCI  26
CLINTON *      CLOUDY    28  25  86 N6        29.99R WCI  22
DECORAH *      CLOUDY    34  32  93 NE7       29.97R WCI  28
DUBUQUE        CLOUDY    32  28  85 N12       29.94R WCI  23
MONTICELLO *   CLOUDY    36  36 100 CALM      29.96R
OELWEIN *      CLOUDY    34  32  93 NW9       29.98R WCI  26
WATERLOO       CLEAR     31  29  92 NW8       29.99R WCI  23
$$

IAZ064-065-067-068-078-270900-
   EAST CENTRAL IOWA

CITY           SKY/WX    TMP DP  RH WIND       PRES   REMARKS
DAVENPORT      CLOUDY    34  30  85 N12       29.96R WCI  25
IOWA CITY      PTCLDY    34  31  88 NW9       30.00R WCI  27
MT. PLEASANT * CLEAR     34  32  93 NW8       29.99R WCI  27
MUSCATINE *    CLOUDY    36  32  87 NW7       29.99R WCI  30
QUAD CITIES    CLOUDY    36  31  82 NW8       29.95R WCI  30
$$

IAZ062-063-075>077-085>089-095>099-270900-
   SOUTHEAST IOWA

CITY           SKY/WX    TMP DP  RH WIND       PRES   REMARKS
BURLINGTON     PTCLDY    37  33  85 NW10      29.97R WCI  30
FAIRFIELD *    CLEAR     34  30  86 NW10      30.00R WCI  26
FORT MADISON * CLEAR     37  34  87 NW9       29.99R WCI  31
KEOKUK *       CLEAR     37  34  87 NW12      29.98R WCI  30
OSKALOOSA *      N/A     32  30  93 NW10      30.01R WCI  24
CENTERVILLE *  CLOUDY    37  32  81 N10       30.02S WCI  30
OTTUMWA        CLEAR     34  30  85 NW13      30.00R WCI  25
WASHINGTON *   CLEAR     36  36 100 NW14      29.99R WCI  27
$$

ABBREVIATIONS USED IN REMARKS
   TC - TEMPERATURES IN CELSIUS
  WCI - WIND CHILL INDEX
   HX - HEAT INDEX
  VSB - VISIBILITY
$$



USA.gov is the U.S. government's official web portal to all federal, state and local government web resources and services.